This is the latest recevied weather packets stored in our database for station/object SP2FH-13. If no packets are shown the sender has not sent any weather packets the latest 10 day(s).
| Time | Temp. | Humidity | Pressure | Rain* | Wind** | Luminosity | Snow |
|---|---|---|---|---|---|---|---|
| 1777650570 | 21.67° C | 32% | 1013.9 hPa | - | - | 168 W/m² | - |
| 1777649967 | 21.67° C | 31% | 1014 hPa | - | - | 195 W/m² | - |
| 1777649666 | 21.67° C | 31% | 1013.9 hPa | - | - | 207 W/m² | - |
| 1777649365 | 21.67° C | 31% | 1014 hPa | - | - | 219 W/m² | - |
| 1777649064 | 22.22° C | 30% | 1014 hPa | - | - | 235 W/m² | - |
| 1777648763 | 22.22° C | 31% | 1014 hPa | - | - | 249 W/m² | - |
| 1777648462 | 22.22° C | 31% | 1014 hPa | - | - | 263 W/m² | - |
| 1777648161 | 21.67° C | 33% | 1014 hPa | - | - | 277 W/m² | - |
| 1777647860 | 21.67° C | 32% | 1014.1 hPa | - | - | 292 W/m² | - |
| 1777647559 | 22.22° C | 30% | 1014.1 hPa | - | - | 306 W/m² | - |
| 1777647258 | 21.67° C | 31% | 1014.2 hPa | - | - | 319 W/m² | - |
| 1777646354 | 21.67° C | 31% | 1014.2 hPa | - | - | 364 W/m² | - |
| 1777646054 | 22.22° C | 33% | 1014.3 hPa | - | - | 372 W/m² | - |
| 1777645753 | 21.67° C | 31% | 1014.3 hPa | - | - | 394 W/m² | - |
| 1777645452 | 21.67° C | 31% | 1014.3 hPa | - | - | 397 W/m² | - |
| 1777645151 | 21.67° C | 31% | 1014.3 hPa | - | - | 409 W/m² | - |
| 1777644850 | 21.67° C | 33% | 1014.4 hPa | - | - | 422 W/m² | - |
| 1777644549 | 21.67° C | 32% | 1014.4 hPa | - | - | 439 W/m² | - |
| 1777644248 | 21.67° C | 33% | 1014.4 hPa | - | - | 454 W/m² | - |
| 1777643946 | 21.11° C | 32% | 1014.4 hPa | - | - | 468 W/m² | - |
| 1777643645 | 21.11° C | 32% | 1014.4 hPa | - | - | 485 W/m² | - |
| 1777642743 | 21.67° C | 32% | 1014.5 hPa | - | - | 517 W/m² | - |
| 1777642441 | 21.11° C | 34% | 1014.5 hPa | - | - | 521 W/m² | - |
| 1777642140 | 21.11° C | 33% | 1014.5 hPa | - | - | 533 W/m² | - |
| 1777641840 | 20.56° C | 33% | 1014.4 hPa | - | - | 544 W/m² | - |
* Rain since midnight (hover to see other rain measurements)
** Current wind speed in m/s (hover to see current wind gust speed)